Powrót do katalogu

STARLINK-33567

AktywnyŁącznośćVLEO
NORAD 62773·PAYLOAD·🇺🇸 United States

Wystrzelony Jan 21, 2025 z Vandenberg Space Force Base

Loading…

Następne Przeloty (najbliższe 24 godziny)

TLE

ŚwieżeSource: CelesTrak SupGP

Epoka: Sep 14, 2026, 22:50 UTC

1 62773C 25015R   26257.95187500 -.00014224  00000+0 -42074-3 0  2576
2 62773  53.1581 159.7141 0000533  89.7849 114.7551 15.34361741    14

Śledź STARLINK-33567 w czasie rzeczywistym z AllMySat

Download on the App Store